Orbital Elements at Epoch 2459200.5 (2020-Dec-17.0) TDB
Reference: JPL 25 (heliocentric ecliptic J2000)
Element | Value | Uncertainty (1-sigma) | Units |
e | .2379915160169054 | 3.4255e-08 | |
a | 2.388414274149053 | 9.2405e-09 | au |
q | 1.819991940167903 | 8.03e-08 | au |
i | 4.716920384128099 | 3.6976e-06 | deg |
node | 34.67970925387824 | 4.8733e-05 | deg |
peri | 255.9766781115464 | 4.9748e-05 | deg |
M | 49.50699118804496 | 7.9043e-06 | deg |
tp | 2459015.092650345390 (2020-Jun-14.59265035) | 2.9845e-05 | TDB |
period | 1348.226670090539 3.69 | 7.8242e-06 2.142e-08 | d yr |
n | .2670174147911082 | 1.5496e-09 | deg/d |
Q | 2.956836608130203 | 1.144e-08 | au |
|
| | Orbit Determination Parameters
Additional Information
|